• In Netherlands
  • List of Countries
  • For 7 days
  • Water Temperature
  • Satellite Maps
  • Weather Map
  • Weather Widgets
  • user-avatar
    Login

    Hourly Weather Jewłach

    Today, 28 May, Sunday

    Time Temperature Precipitation Wind Pressure Humidity
    00:00 +20°C° 0.3 mm 1 mps 758 mmHg 70%
    01:00 +20°C° 0 mm 1 mps 758 mmHg 69%
    02:00 +19°C° 0 mm 1 mps 758 mmHg 69%
    03:00 +18°C° 0 mm 2 mps 758 mmHg 58%
    04:00 +19°C° 0 mm 2 mps 758 mmHg 57%
    05:00 +20°C° 0 mm 2 mps 758 mmHg 56%
    06:00 +20°C° 0 mm 2 mps 758 mmHg 55%
    07:00 +24°C° 0 mm 2 mps 758 mmHg 47%
    08:00 +26°C° 0 mm 2 mps 758 mmHg 40%
    09:00 +28°C° 0 mm 2 mps 758 mmHg 32%
    10:00 +29°C° 0 mm 2 mps 757 mmHg 30%
    11:00 +30°C° 0 mm 2 mps 757 mmHg 29%
    12:00 +31°C° 0 mm 2 mps 757 mmHg 27%
    13:00 +32°C° 0 mm 2 mps 757 mmHg 26%
    14:00 +32°C° 0 mm 2 mps 756 mmHg 26%
    15:00 +32°C° 0 mm 2 mps 756 mmHg 26%
    16:00 +31°C° 0.1 mm 2 mps 757 mmHg 30%
    17:00 +30°C° 0.1 mm 2 mps 757 mmHg 33%
    18:00 +29°C° 0.1 mm 2 mps 758 mmHg 37%
    19:00 +27°C° 0.6 mm 2 mps 759 mmHg 45%
    20:00 +24°C° 0.6 mm 2 mps 759 mmHg 53%
    21:00 +22°C° 0.6 mm 1 mps 760 mmHg 62%
    22:00 +21°C° 0.1 mm 1 mps 761 mmHg 66%
    23:00 +20°C° 0.1 mm 1 mps 761 mmHg 70%

    Tomorrow, 29 May, Monday

    Time Temperature Precipitation Wind Pressure Humidity
    00:00 +20°C° 0.1 mm 1 mps 762 mmHg 74%
    01:00 +19°C° 0 mm 1 mps 762 mmHg 75%
    02:00 +19°C° 0 mm 1 mps 762 mmHg 77%
    03:00 +16°C° 0 mm 0 mps 762 mmHg 78%
    04:00 +20°C° 0 mm 1 mps 763 mmHg 73%
    05:00 +21°C° 0 mm 1 mps 763 mmHg 69%
    06:00 +22°C° 0 mm 1 mps 763 mmHg 64%
    07:00 +23°C° 0 mm 1 mps 763 mmHg 57%
    08:00 +25°C° 0 mm 1 mps 763 mmHg 50%
    09:00 +27°C° 0 mm 1 mps 763 mmHg 43%
    10:00 +28°C° 0 mm 1 mps 763 mmHg 40%
    11:00 +29°C° 0 mm 2 mps 763 mmHg 38%
    12:00 +30°C° 0 mm 2 mps 762 mmHg 35%
    13:00 +31°C° 0 mm 3 mps 762 mmHg 35%
    14:00 +31°C° 0 mm 3 mps 762 mmHg 35%
    15:00 +33°C° 0 mm 4 mps 762 mmHg 35%
    16:00 +32°C° 0 mm 4 mps 762 mmHg 37%
    17:00 +30°C° 0 mm 5 mps 762 mmHg 40%
    18:00 +29°C° 0 mm 5 mps 762 mmHg 42%
    19:00 +27°C° 0 mm 5 mps 763 mmHg 48%
    20:00 +25°C° 0 mm 5 mps 763 mmHg 53%
    21:00 +22°C° 0 mm 5 mps 764 mmHg 59%
    22:00 +21°C° 0 mm 4 mps 764 mmHg 62%
    23:00 +20°C° 0 mm 3 mps 764 mmHg 65%

    Day after tomorrow, 30 May, Tuesday

    Time Temperature Precipitation Wind Pressure Humidity
    00:00 +19°C° 0 mm 3 mps 764 mmHg 68%
    01:00 +19°C° 0 mm 2 mps 764 mmHg 70%
    02:00 +18°C° 0 mm 2 mps 763 mmHg 72%
    03:00 +19°C° 0 mm 1 mps 763 mmHg 74%
    04:00 +20°C° 0 mm 1 mps 763 mmHg 71%
    05:00 +20°C° 0 mm 1 mps 763 mmHg 68%
    06:00 +21°C° 0 mm 1 mps 763 mmHg 65%
    07:00 +23°C° 0 mm 1 mps 762 mmHg 59%
    08:00 +24°C° 0 mm 1 mps 762 mmHg 53%
    09:00 +26°C° 0 mm 1 mps 761 mmHg 47%
    10:00 +28°C° 0 mm 1 mps 761 mmHg 43%
    11:00 +29°C° 0 mm 1 mps 760 mmHg 39%
    12:00 +30°C° 0 mm 1 mps 759 mmHg 35%
    13:00 +31°C° 0 mm 1 mps 759 mmHg 34%
    14:00 +32°C° 0 mm 1 mps 758 mmHg 32%
    15:00 +33°C° 0 mm 1 mps 758 mmHg 30%
    16:00 +32°C° 0 mm 1 mps 758 mmHg 32%
    17:00 +32°C° 0 mm 1 mps 758 mmHg 34%
    18:00 +31°C° 0 mm 1 mps 758 mmHg 36%
    19:00 +29°C° 0 mm 1 mps 758 mmHg 41%
    20:00 +26°C° 0 mm 1 mps 758 mmHg 47%
    21:00 +24°C° 0 mm 1 mps 759 mmHg 52%
    22:00 +24°C° 0 mm 1 mps 759 mmHg 52%
    23:00 +23°C° 0 mm 1 mps 759 mmHg 51%

    31 May, Wednesday

    Time Temperature Precipitation Wind Pressure Humidity
    00:00 +23°C° 0 mm 2 mps 759 mmHg 51%
    01:00 +22°C° 0 mm 1 mps 759 mmHg 52%
    02:00 +21°C° 0 mm 1 mps 759 mmHg 53%
    03:00 +21°C° 0 mm 1 mps 758 mmHg 55%
    04:00 +22°C° 0 mm 1 mps 759 mmHg 52%
    05:00 +23°C° 0 mm 1 mps 759 mmHg 48%
    06:00 +25°C° 0 mm 2 mps 759 mmHg 45%
    07:00 +27°C° 0 mm 2 mps 758 mmHg 39%
    08:00 +29°C° 0 mm 2 mps 758 mmHg 32%
    09:00 +31°C° 0 mm 2 mps 758 mmHg 25%
    10:00 +32°C° 0 mm 2 mps 758 mmHg 23%
    11:00 +34°C° 0 mm 1 mps 757 mmHg 21%
    12:00 +35°C° 0 mm 1 mps 757 mmHg 19%
    13:00 +36°C° 0 mm 2 mps 756 mmHg 19%
    14:00 +37°C° 0 mm 2 mps 756 mmHg 19%
    15:00 +37°C° 0 mm 2 mps 755 mmHg 19%
    16:00 +36°C° 0 mm 3 mps 755 mmHg 23%
    17:00 +35°C° 0 mm 3 mps 755 mmHg 26%
    18:00 +34°C° 0 mm 3 mps 755 mmHg 30%
    19:00 +30°C° 0.2 mm 3 mps 756 mmHg 35%
    20:00 +28°C° 0.2 mm 3 mps 756 mmHg 40%
    21:00 +26°C° 0.2 mm 4 mps 757 mmHg 45%
    22:00 +25°C° 0.4 mm 3 mps 757 mmHg 50%
    23:00 +24°C° 0.4 mm 2 mps 757 mmHg 54%

    1 June, Thursday

    Time Temperature Precipitation Wind Pressure Humidity
    00:00 +23°C° 0.4 mm 1 mps 757 mmHg 59%
    01:00 +23°C° 0.3 mm 2 mps 757 mmHg 60%
    02:00 +21°C° 0.3 mm 3 mps 757 mmHg 61%
    03:00 +21°C° 0.3 mm 3 mps 757 mmHg 62%
    04:00 +21°C° 0.2 mm 3 mps 757 mmHg 61%
    05:00 +22°C° 0.2 mm 3 mps 757 mmHg 60%
    06:00 +22°C° 0.2 mm 3 mps 757 mmHg 60%
    07:00 +25°C° 0 mm 4 mps 757 mmHg 53%
    08:00 +27°C° 0 mm 4 mps 756 mmHg 46%
    09:00 +29°C° 0 mm 5 mps 756 mmHg 39%
    10:00 +30°C° 0 mm 4 mps 756 mmHg 36%
    11:00 +32°C° 0 mm 4 mps 755 mmHg 33%
    12:00 +33°C° 0 mm 4 mps 755 mmHg 30%
    13:00 +34°C° 0 mm 3 mps 754 mmHg 29%
    14:00 +34°C° 0 mm 3 mps 754 mmHg 27%
    15:00 +34°C° 0 mm 3 mps 754 mmHg 25%
    16:00 +34°C° 0.1 mm 2 mps 754 mmHg 27%
    17:00 +32°C° 0.1 mm 2 mps 754 mmHg 29%
    18:00 +31°C° 0.1 mm 2 mps 754 mmHg 31%
    19:00 +29°C° 0 mm 2 mps 755 mmHg 32%
    20:00 +26°C° 0 mm 2 mps 756 mmHg 34%
    21:00 +24°C° 0 mm 2 mps 756 mmHg 36%
    22:00 +23°C° 0.1 mm 2 mps 756 mmHg 40%
    23:00 +21°C° 0.1 mm 2 mps 757 mmHg 45%

    2 June, Friday

    Time Temperature Precipitation Wind Pressure Humidity
    00:00 +22°C° 0.1 mm 1 mps 757 mmHg 50%
    01:00 +22°C° 0 mm 1 mps 757 mmHg 52%
    02:00 +21°C° 0 mm 1 mps 757 mmHg 55%
    03:00 +20°C° 0 mm 2 mps 757 mmHg 57%
    04:00 +20°C° 0.1 mm 2 mps 757 mmHg 57%
    05:00 +21°C° 0.1 mm 3 mps 757 mmHg 56%
    06:00 +22°C° 0.1 mm 3 mps 758 mmHg 55%
    07:00 +25°C° 0.1 mm 3 mps 758 mmHg 49%
    08:00 +26°C° 0.1 mm 4 mps 758 mmHg 43%
    09:00 +28°C° 0.1 mm 4 mps 757 mmHg 37%
    10:00 +29°C° 0 mm 4 mps 757 mmHg 34%
    11:00 +30°C° 0 mm 3 mps 757 mmHg 31%
    12:00 +31°C° 0 mm 3 mps 757 mmHg 29%
    13:00 +32°C° 0 mm 2 mps 757 mmHg 28%
    14:00 +34°C° 0 mm 2 mps 756 mmHg 27%
    15:00 +33°C° 0 mm 1 mps 756 mmHg 26%
    16:00 +33°C° 0 mm 1 mps 757 mmHg 28%
    17:00 +32°C° 0 mm 1 mps 757 mmHg 30%
    18:00 +32°C° 0 mm 1 mps 758 mmHg 32%
    19:00 +29°C° 0 mm 2 mps 758 mmHg 35%
    20:00 +27°C° 0 mm 3 mps 759 mmHg 38%
    21:00 +25°C° 0 mm 4 mps 759 mmHg 41%
    22:00 +23°C° 0 mm 4 mps 759 mmHg 45%
    23:00 +22°C° 0 mm 3 mps 759 mmHg 49%
    Show more